Location: Famechon
(49.7599°N, 2.0615°E)
Time: 00:57:46
(UTC+00:00)

Cosmos 2219 Rocket - Pass Details

Date: 03 February 2023
Orbit: 826 x 848 km, 71.0° (Epoch: 21 March)

Event Time Altitude Azimuth Distance (km) Brightness Sun altitude
Rises 18:04:55 0° 161° (SSE) 3,352 5.2 -12.4°
Reaches altitude 10° 18:07:56 10° 145° (SE) 2,426 4.4 -12.8°
Maximum altitude 18:11:50 20° 100° (E) 1,835 3.4 -13.5°
Enters shadow 18:12:44 19° 88° (E) 1,873 3.4 -13.6°
